<?xml version="1.0" encoding="UTF-8"?>
<gpx version="1.1" creator="2bulu-scraper" xmlns="http://www.topografix.com/GPX/1/1">
  <metadata><name>宜宾兴文凌霄城徒步环线（精华版）</name><desc>source: 2bulu.com trackId=82182042; exported 2026-09-01T19:08:13.709Z</desc>
    <bounds minlat="28.2691532" minlon="105.0169253" maxlat="28.2961242" maxlon="105.0474084"/>
    <link href="https://www.2bulu.com/track/t-cuC4t5%252FH0nvp%252FR2KBg5Tzw%253D%253D.htm"><text>2bulu 源页面</text></link>
  </metadata>
  <wpt lat="28.2958998" lon="105.0332323"><ele>382</ele><name>
        </name></wpt>
  <wpt lat="28.2958998" lon="105.0332323"><ele>382</ele><name>
        </name></wpt>
  <wpt lat="28.2958998" lon="105.0332323"><ele>382</ele><name>
        </name></wpt>
  <wpt lat="28.2958998" lon="105.0332323"><ele>382</ele><name>
        </name></wpt>
  <wpt lat="28.2958998" lon="105.0332323"><ele>382</ele><name>
        </name></wpt>
  <wpt lat="28.2958998" lon="105.0332323"><ele>382</ele><name>
        </name></wpt>
  <wpt lat="28.2958998" lon="105.0332323"><ele>382</ele><name>
        </name></wpt>
  <wpt lat="28.2958998" lon="105.0332323"><ele>382</ele><name>
        </name></wpt>
  <wpt lat="28.2958998" lon="105.0332323"><ele>382</ele><name>
        </name></wpt>
  <wpt lat="28.2958998" lon="105.0332323"><ele>382</ele><name>
        </name></wpt>
  <wpt lat="28.2958998" lon="105.0332323"><ele>382</ele><name>
        </name></wpt>
  <wpt lat="28.2958998" lon="105.0332323"><ele>382</ele><name>
        </name></wpt>
  <wpt lat="28.2958998" lon="105.0332323"><ele>382</ele><name>
        </name></wpt>
  <wpt lat="28.2958998" lon="105.0332323"><ele>382</ele><name>
        </name></wpt>
  <wpt lat="28.2958998" lon="105.0332323"><ele>382</ele><name>
        </name></wpt>
  <wpt lat="28.2958998" lon="105.0332323"><ele>382</ele><name>
        </name></wpt>
  <wpt lat="28.2958998" lon="105.0332323"><ele>382</ele><name>
        </name></wpt>
  <wpt lat="28.2958998" lon="105.0332323"><ele>382</ele><name>
        </name></wpt>
  <trk><name>宜宾兴文凌霄城徒步环线（精华版）</name>
      <trkseg>
        <trkpt lat="28.2958998" lon="105.0332323"><ele>382</ele><time></time></trkpt>
        <trkpt lat="28.2961242" lon="105.0333614"><ele>386</ele><time></time></trkpt>
        <trkpt lat="28.2958752" lon="105.0332249"><ele>382</ele><time></time></trkpt>
        <trkpt lat="28.2957117" lon="105.0336834"><ele>377</ele><time></time></trkpt>
        <trkpt lat="28.2950117" lon="105.0341461"><ele>368</ele><time></time></trkpt>
        <trkpt lat="28.2948385" lon="105.0338951"><ele>368</ele><time></time></trkpt>
        <trkpt lat="28.294331" lon="105.0341903"><ele>371</ele><time></time></trkpt>
        <trkpt lat="28.2944197" lon="105.0348168"><ele>373</ele><time></time></trkpt>
        <trkpt lat="28.2940747" lon="105.0349909"><ele>374</ele><time></time></trkpt>
        <trkpt lat="28.2939378" lon="105.0352947"><ele>375</ele><time></time></trkpt>
        <trkpt lat="28.2931878" lon="105.0352888"><ele>388</ele><time></time></trkpt>
        <trkpt lat="28.2929664" lon="105.0349447"><ele>401</ele><time></time></trkpt>
        <trkpt lat="28.2924102" lon="105.0352822"><ele>406</ele><time></time></trkpt>
        <trkpt lat="28.291525" lon="105.0354743"><ele>413</ele><time></time></trkpt>
        <trkpt lat="28.291194" lon="105.0362523"><ele>408</ele><time></time></trkpt>
        <trkpt lat="28.290407" lon="105.0370056"><ele>397</ele><time></time></trkpt>
        <trkpt lat="28.2902387" lon="105.0375921"><ele>393</ele><time></time></trkpt>
        <trkpt lat="28.2896856" lon="105.0370192"><ele>424</ele><time></time></trkpt>
        <trkpt lat="28.2893455" lon="105.0371769"><ele>439</ele><time></time></trkpt>
        <trkpt lat="28.2888345" lon="105.0370008"><ele>453</ele><time></time></trkpt>
        <trkpt lat="28.2883453" lon="105.0364245"><ele>464</ele><time></time></trkpt>
        <trkpt lat="28.2875463" lon="105.0359815"><ele>452</ele><time></time></trkpt>
        <trkpt lat="28.286425" lon="105.0350205"><ele>460</ele><time></time></trkpt>
        <trkpt lat="28.2859321" lon="105.0343049"><ele>462</ele><time></time></trkpt>
        <trkpt lat="28.2853318" lon="105.0344079"><ele>464</ele><time></time></trkpt>
        <trkpt lat="28.285349" lon="105.0342742"><ele>464</ele><time></time></trkpt>
        <trkpt lat="28.2860624" lon="105.0349749"><ele>460</ele><time></time></trkpt>
        <trkpt lat="28.2862065" lon="105.0355376"><ele>460</ele><time></time></trkpt>
        <trkpt lat="28.2866852" lon="105.0360057"><ele>458</ele><time></time></trkpt>
        <trkpt lat="28.2869548" lon="105.0368182"><ele>482</ele><time></time></trkpt>
        <trkpt lat="28.287864" lon="105.0376893"><ele>447</ele><time></time></trkpt>
        <trkpt lat="28.2880566" lon="105.0377036"><ele>438</ele><time></time></trkpt>
        <trkpt lat="28.2889131" lon="105.0390251"><ele>383</ele><time></time></trkpt>
        <trkpt lat="28.2885449" lon="105.0394188"><ele>390</ele><time></time></trkpt>
        <trkpt lat="28.2879924" lon="105.0392123"><ele>390</ele><time></time></trkpt>
        <trkpt lat="28.2873785" lon="105.0397936"><ele>391</ele><time></time></trkpt>
        <trkpt lat="28.2867134" lon="105.039933"><ele>387</ele><time></time></trkpt>
        <trkpt lat="28.2860965" lon="105.0406227"><ele>390</ele><time></time></trkpt>
        <trkpt lat="28.2858138" lon="105.0407101"><ele>390</ele><time></time></trkpt>
        <trkpt lat="28.2855855" lon="105.0405036"><ele>391</ele><time></time></trkpt>
        <trkpt lat="28.2849726" lon="105.0406443"><ele>396</ele><time></time></trkpt>
        <trkpt lat="28.2839329" lon="105.0411211"><ele>396</ele><time></time></trkpt>
        <trkpt lat="28.2830837" lon="105.0416298"><ele>406</ele><time></time></trkpt>
        <trkpt lat="28.2828017" lon="105.0420567"><ele>402</ele><time></time></trkpt>
        <trkpt lat="28.2820892" lon="105.0419194"><ele>438</ele><time></time></trkpt>
        <trkpt lat="28.281742" lon="105.0416523"><ele>460</ele><time></time></trkpt>
        <trkpt lat="28.2810701" lon="105.0419286"><ele>459</ele><time></time></trkpt>
        <trkpt lat="28.2807925" lon="105.0418114"><ele>452</ele><time></time></trkpt>
        <trkpt lat="28.2806286" lon="105.0420884"><ele>450</ele><time></time></trkpt>
        <trkpt lat="28.2801622" lon="105.0422056"><ele>447</ele><time></time></trkpt>
        <trkpt lat="28.279979" lon="105.0430476"><ele>451</ele><time></time></trkpt>
        <trkpt lat="28.2797684" lon="105.0432732"><ele>456</ele><time></time></trkpt>
        <trkpt lat="28.2789354" lon="105.0431787"><ele>471</ele><time></time></trkpt>
        <trkpt lat="28.2790066" lon="105.0436696"><ele>469</ele><time></time></trkpt>
        <trkpt lat="28.2785508" lon="105.0442876"><ele>476</ele><time></time></trkpt>
        <trkpt lat="28.278407" lon="105.0449496"><ele>453</ele><time></time></trkpt>
        <trkpt lat="28.2783259" lon="105.0450888"><ele>446</ele><time></time></trkpt>
        <trkpt lat="28.2781795" lon="105.0450274"><ele>442</ele><time></time></trkpt>
        <trkpt lat="28.2782152" lon="105.0453348"><ele>437</ele><time></time></trkpt>
        <trkpt lat="28.2775861" lon="105.0460043"><ele>432</ele><time></time></trkpt>
        <trkpt lat="28.277899" lon="105.0460865"><ele>415</ele><time></time></trkpt>
        <trkpt lat="28.2779984" lon="105.0464417"><ele>421</ele><time></time></trkpt>
        <trkpt lat="28.2776693" lon="105.0471564"><ele>421</ele><time></time></trkpt>
        <trkpt lat="28.2770424" lon="105.0469976"><ele>422</ele><time></time></trkpt>
        <trkpt lat="28.2765514" lon="105.0465885"><ele>428</ele><time></time></trkpt>
        <trkpt lat="28.276488" lon="105.0464035"><ele>428</ele><time></time></trkpt>
        <trkpt lat="28.2766053" lon="105.0463553"><ele>428</ele><time></time></trkpt>
        <trkpt lat="28.2763973" lon="105.0463965"><ele>435</ele><time></time></trkpt>
        <trkpt lat="28.2764303" lon="105.0462134"><ele>432</ele><time></time></trkpt>
        <trkpt lat="28.275626" lon="105.0453935"><ele>445</ele><time></time></trkpt>
        <trkpt lat="28.2752755" lon="105.0453834"><ele>445</ele><time></time></trkpt>
        <trkpt lat="28.2743434" lon="105.0448505"><ele>452</ele><time></time></trkpt>
        <trkpt lat="28.2736643" lon="105.0452036"><ele>483</ele><time></time></trkpt>
        <trkpt lat="28.2729125" lon="105.0453157"><ele>505</ele><time></time></trkpt>
        <trkpt lat="28.2723211" lon="105.0458106"><ele>514</ele><time></time></trkpt>
        <trkpt lat="28.2717714" lon="105.0458456"><ele>514</ele><time></time></trkpt>
        <trkpt lat="28.2722438" lon="105.0457817"><ele>516</ele><time></time></trkpt>
        <trkpt lat="28.2730267" lon="105.0452867"><ele>506</ele><time></time></trkpt>
        <trkpt lat="28.2736404" lon="105.0460333"><ele>541</ele><time></time></trkpt>
        <trkpt lat="28.2739473" lon="105.0460694"><ele>550</ele><time></time></trkpt>
        <trkpt lat="28.2740572" lon="105.0462454"><ele>554</ele><time></time></trkpt>
        <trkpt lat="28.2734182" lon="105.0464422"><ele>565</ele><time></time></trkpt>
        <trkpt lat="28.2727593" lon="105.0462424"><ele>572</ele><time></time></trkpt>
        <trkpt lat="28.2725793" lon="105.0465123"><ele>581</ele><time></time></trkpt>
        <trkpt lat="28.2718385" lon="105.0466032"><ele>588</ele><time></time></trkpt>
        <trkpt lat="28.2715046" lon="105.0474084"><ele>589</ele><time></time></trkpt>
        <trkpt lat="28.2704361" lon="105.0470813"><ele>584</ele><time></time></trkpt>
        <trkpt lat="28.2700757" lon="105.0468236"><ele>588</ele><time></time></trkpt>
        <trkpt lat="28.2698865" lon="105.0470094"><ele>592</ele><time></time></trkpt>
        <trkpt lat="28.2696998" lon="105.0468883"><ele>592</ele><time></time></trkpt>
        <trkpt lat="28.2691532" lon="105.0469744"><ele>595</ele><time></time></trkpt>
        <trkpt lat="28.2694136" lon="105.0464873"><ele>597</ele><time></time></trkpt>
        <trkpt lat="28.2702839" lon="105.0459412"><ele>598</ele><time></time></trkpt>
        <trkpt lat="28.2706128" lon="105.0452843"><ele>597</ele><time></time></trkpt>
        <trkpt lat="28.2705128" lon="105.0454938"><ele>598</ele><time></time></trkpt>
        <trkpt lat="28.2704746" lon="105.0452769"><ele>601</ele><time></time></trkpt>
        <trkpt lat="28.2705207" lon="105.0454748"><ele>598</ele><time></time></trkpt>
        <trkpt lat="28.2706762" lon="105.0452611"><ele>597</ele><time></time></trkpt>
        <trkpt lat="28.271085" lon="105.045489"><ele>598</ele><time></time></trkpt>
        <trkpt lat="28.2712853" lon="105.0454322"><ele>598</ele><time></time></trkpt>
        <trkpt lat="28.2715267" lon="105.0446766"><ele>595</ele><time></time></trkpt>
        <trkpt lat="28.2711774" lon="105.0444429"><ele>607</ele><time></time></trkpt>
        <trkpt lat="28.2719456" lon="105.044313"><ele>605</ele><time></time></trkpt>
        <trkpt lat="28.2723284" lon="105.0437065"><ele>600</ele><time></time></trkpt>
        <trkpt lat="28.2723521" lon="105.0432573"><ele>603</ele><time></time></trkpt>
        <trkpt lat="28.2729631" lon="105.043338"><ele>607</ele><time></time></trkpt>
        <trkpt lat="28.2733168" lon="105.0427226"><ele>609</ele><time></time></trkpt>
        <trkpt lat="28.2737635" lon="105.0425888"><ele>607</ele><time></time></trkpt>
        <trkpt lat="28.2738644" lon="105.04233"><ele>616</ele><time></time></trkpt>
        <trkpt lat="28.2737619" lon="105.0415222"><ele>624</ele><time></time></trkpt>
        <trkpt lat="28.2739405" lon="105.0413269"><ele>630</ele><time></time></trkpt>
        <trkpt lat="28.273636" lon="105.0406782"><ele>639</ele><time></time></trkpt>
        <trkpt lat="28.2733878" lon="105.040483"><ele>636</ele><time></time></trkpt>
        <trkpt lat="28.2730894" lon="105.0395884"><ele>628</ele><time></time></trkpt>
        <trkpt lat="28.2738942" lon="105.0397263"><ele>621</ele><time></time></trkpt>
        <trkpt lat="28.2740129" lon="105.0401763"><ele>610</ele><time></time></trkpt>
        <trkpt lat="28.2743941" lon="105.0404696"><ele>607</ele><time></time></trkpt>
        <trkpt lat="28.2748504" lon="105.0405969"><ele>606</ele><time></time></trkpt>
        <trkpt lat="28.2748326" lon="105.0403578"><ele>607</ele><time></time></trkpt>
        <trkpt lat="28.2752241" lon="105.0410611"><ele>606</ele><time></time></trkpt>
        <trkpt lat="28.2756963" lon="105.0414553"><ele>602</ele><time></time></trkpt>
        <trkpt lat="28.2757963" lon="105.0413319"><ele>603</ele><time></time></trkpt>
        <trkpt lat="28.2757259" lon="105.0416417"><ele>602</ele><time></time></trkpt>
        <trkpt lat="28.2759865" lon="105.0421452"><ele>592</ele><time></time></trkpt>
        <trkpt lat="28.2761112" lon="105.0417758"><ele>591</ele><time></time></trkpt>
        <trkpt lat="28.2765798" lon="105.0415392"><ele>588</ele><time></time></trkpt>
        <trkpt lat="28.2772063" lon="105.0419262"><ele>584</ele><time></time></trkpt>
        <trkpt lat="28.2778274" lon="105.0417603"><ele>582</ele><time></time></trkpt>
        <trkpt lat="28.2784512" lon="105.04097"><ele>579</ele><time></time></trkpt>
        <trkpt lat="28.278823" lon="105.0407438"><ele>578</ele><time></time></trkpt>
        <trkpt lat="28.2795003" lon="105.0397631"><ele>567</ele><time></time></trkpt>
        <trkpt lat="28.2798974" lon="105.0397756"><ele>566</ele><time></time></trkpt>
        <trkpt lat="28.2802535" lon="105.0395471"><ele>563</ele><time></time></trkpt>
        <trkpt lat="28.2802641" lon="105.039187"><ele>571</ele><time></time></trkpt>
        <trkpt lat="28.2800929" lon="105.0390456"><ele>581</ele><time></time></trkpt>
        <trkpt lat="28.2802962" lon="105.0391942"><ele>572</ele><time></time></trkpt>
        <trkpt lat="28.2803589" lon="105.0389807"><ele>572</ele><time></time></trkpt>
        <trkpt lat="28.2807713" lon="105.0388821"><ele>559</ele><time></time></trkpt>
        <trkpt lat="28.2808179" lon="105.0383673"><ele>560</ele><time></time></trkpt>
        <trkpt lat="28.2810092" lon="105.0382151"><ele>561</ele><time></time></trkpt>
        <trkpt lat="28.2814672" lon="105.0384721"><ele>564</ele><time></time></trkpt>
        <trkpt lat="28.2820662" lon="105.0384064"><ele>565</ele><time></time></trkpt>
        <trkpt lat="28.2816964" lon="105.0381638"><ele>569</ele><time></time></trkpt>
        <trkpt lat="28.2821088" lon="105.0384008"><ele>565</ele><time></time></trkpt>
        <trkpt lat="28.2824362" lon="105.0380911"><ele>563</ele><time></time></trkpt>
        <trkpt lat="28.28283" lon="105.0381216"><ele>562</ele><time></time></trkpt>
        <trkpt lat="28.2836434" lon="105.0378263"><ele>562</ele><time></time></trkpt>
        <trkpt lat="28.2838422" lon="105.0371525"><ele>563</ele><time></time></trkpt>
        <trkpt lat="28.2842012" lon="105.0368388"><ele>564</ele><time></time></trkpt>
        <trkpt lat="28.2840678" lon="105.0357372"><ele>564</ele><time></time></trkpt>
        <trkpt lat="28.2837557" lon="105.0354692"><ele>562</ele><time></time></trkpt>
        <trkpt lat="28.2840599" lon="105.0349734"><ele>562</ele><time></time></trkpt>
        <trkpt lat="28.2839195" lon="105.033808"><ele>559</ele><time></time></trkpt>
        <trkpt lat="28.2838734" lon="105.0339679"><ele>559</ele><time></time></trkpt>
        <trkpt lat="28.2837674" lon="105.0337582"><ele>559</ele><time></time></trkpt>
        <trkpt lat="28.2838628" lon="105.0339659"><ele>559</ele><time></time></trkpt>
        <trkpt lat="28.283813" lon="105.0337672"><ele>559</ele><time></time></trkpt>
        <trkpt lat="28.2849941" lon="105.0332725"><ele>551</ele><time></time></trkpt>
        <trkpt lat="28.2859233" lon="105.0332797"><ele>560</ele><time></time></trkpt>
        <trkpt lat="28.285507" lon="105.0328322"><ele>566</ele><time></time></trkpt>
        <trkpt lat="28.2863153" lon="105.0329697"><ele>573</ele><time></time></trkpt>
        <trkpt lat="28.2869149" lon="105.0327532"><ele>574</ele><time></time></trkpt>
        <trkpt lat="28.2863668" lon="105.0316749"><ele>598</ele><time></time></trkpt>
        <trkpt lat="28.2866518" lon="105.0315844"><ele>618</ele><time></time></trkpt>
        <trkpt lat="28.2868122" lon="105.0304919"><ele>638</ele><time></time></trkpt>
        <trkpt lat="28.2863224" lon="105.0293055"><ele>664</ele><time></time></trkpt>
        <trkpt lat="28.2860095" lon="105.0290874"><ele>665</ele><time></time></trkpt>
        <trkpt lat="28.2855618" lon="105.0281968"><ele>669</ele><time></time></trkpt>
        <trkpt lat="28.2853877" lon="105.0283379"><ele>668</ele><time></time></trkpt>
        <trkpt lat="28.285446" lon="105.0281159"><ele>669</ele><time></time></trkpt>
        <trkpt lat="28.2853267" lon="105.028148"><ele>674</ele><time></time></trkpt>
        <trkpt lat="28.2851644" lon="105.0277903"><ele>690</ele><time></time></trkpt>
        <trkpt lat="28.2846835" lon="105.0274656"><ele>716</ele><time></time></trkpt>
        <trkpt lat="28.2832589" lon="105.0280393"><ele>708</ele><time></time></trkpt>
        <trkpt lat="28.2824" lon="105.0275651"><ele>698</ele><time></time></trkpt>
        <trkpt lat="28.2813465" lon="105.0273366"><ele>696</ele><time></time></trkpt>
        <trkpt lat="28.2808301" lon="105.0265841"><ele>722</ele><time></time></trkpt>
        <trkpt lat="28.2807383" lon="105.026093"><ele>730</ele><time></time></trkpt>
        <trkpt lat="28.2807837" lon="105.0258437"><ele>734</ele><time></time></trkpt>
        <trkpt lat="28.2810232" lon="105.0258487"><ele>748</ele><time></time></trkpt>
        <trkpt lat="28.2811861" lon="105.0254255"><ele>767</ele><time></time></trkpt>
        <trkpt lat="28.2813283" lon="105.0254275"><ele>771</ele><time></time></trkpt>
        <trkpt lat="28.2817356" lon="105.023856"><ele>836</ele><time></time></trkpt>
        <trkpt lat="28.2815149" lon="105.0235034"><ele>849</ele><time></time></trkpt>
        <trkpt lat="28.2816115" lon="105.0227537"><ele>881</ele><time></time></trkpt>
        <trkpt lat="28.2817506" lon="105.0227413"><ele>889</ele><time></time></trkpt>
        <trkpt lat="28.2813205" lon="105.0224463"><ele>911</ele><time></time></trkpt>
        <trkpt lat="28.2811886" lon="105.0220384"><ele>930</ele><time></time></trkpt>
        <trkpt lat="28.2813778" lon="105.0222216"><ele>932</ele><time></time></trkpt>
        <trkpt lat="28.281633" lon="105.0220947"><ele>942</ele><time></time></trkpt>
        <trkpt lat="28.2816747" lon="105.0223888"><ele>955</ele><time></time></trkpt>
        <trkpt lat="28.2819408" lon="105.0223636"><ele>956</ele><time></time></trkpt>
        <trkpt lat="28.2821081" lon="105.022723"><ele>960</ele><time></time></trkpt>
        <trkpt lat="28.2823554" lon="105.0228267"><ele>963</ele><time></time></trkpt>
        <trkpt lat="28.2834637" lon="105.0229297"><ele>965</ele><time></time></trkpt>
        <trkpt lat="28.2836713" lon="105.0232616"><ele>962</ele><time></time></trkpt>
        <trkpt lat="28.2834678" lon="105.0239027"><ele>961</ele><time></time></trkpt>
        <trkpt lat="28.2836682" lon="105.0226538"><ele>942</ele><time></time></trkpt>
        <trkpt lat="28.2838723" lon="105.0226473"><ele>931</ele><time></time></trkpt>
        <trkpt lat="28.2837353" lon="105.0225091"><ele>919</ele><time></time></trkpt>
        <trkpt lat="28.2838348" lon="105.0223876"><ele>907</ele><time></time></trkpt>
        <trkpt lat="28.2837036" lon="105.0223698"><ele>901</ele><time></time></trkpt>
        <trkpt lat="28.2839332" lon="105.0220315"><ele>879</ele><time></time></trkpt>
        <trkpt lat="28.2839622" lon="105.0213738"><ele>847</ele><time></time></trkpt>
        <trkpt lat="28.2841198" lon="105.0212846"><ele>834</ele><time></time></trkpt>
        <trkpt lat="28.2840573" lon="105.0208703"><ele>803</ele><time></time></trkpt>
        <trkpt lat="28.2842246" lon="105.0208988"><ele>794</ele><time></time></trkpt>
        <trkpt lat="28.2846884" lon="105.020547"><ele>752</ele><time></time></trkpt>
        <trkpt lat="28.2849469" lon="105.0201881"><ele>730</ele><time></time></trkpt>
        <trkpt lat="28.2852975" lon="105.0200421"><ele>720</ele><time></time></trkpt>
        <trkpt lat="28.2853708" lon="105.0197929"><ele>716</ele><time></time></trkpt>
        <trkpt lat="28.2856566" lon="105.0198804"><ele>708</ele><time></time></trkpt>
        <trkpt lat="28.285438" lon="105.0193874"><ele>699</ele><time></time></trkpt>
        <trkpt lat="28.2855399" lon="105.0185016"><ele>688</ele><time></time></trkpt>
        <trkpt lat="28.2854143" lon="105.0184882"><ele>684</ele><time></time></trkpt>
        <trkpt lat="28.2855358" lon="105.018503"><ele>686</ele><time></time></trkpt>
        <trkpt lat="28.2854166" lon="105.0191131"><ele>696</ele><time></time></trkpt>
        <trkpt lat="28.285588" lon="105.0195473"><ele>698</ele><time></time></trkpt>
        <trkpt lat="28.2861381" lon="105.0190412"><ele>683</ele><time></time></trkpt>
        <trkpt lat="28.2864818" lon="105.0189395"><ele>669</ele><time></time></trkpt>
        <trkpt lat="28.2865841" lon="105.0190967"><ele>662</ele><time></time></trkpt>
        <trkpt lat="28.2873255" lon="105.0184034"><ele>646</ele><time></time></trkpt>
        <trkpt lat="28.2878935" lon="105.018463"><ele>624</ele><time></time></trkpt>
        <trkpt lat="28.2880518" lon="105.0182799"><ele>625</ele><time></time></trkpt>
        <trkpt lat="28.2880939" lon="105.0179228"><ele>626</ele><time></time></trkpt>
        <trkpt lat="28.2878615" lon="105.0175348"><ele>626</ele><time></time></trkpt>
        <trkpt lat="28.2873442" lon="105.0176211"><ele>623</ele><time></time></trkpt>
        <trkpt lat="28.2866982" lon="105.0174896"><ele>617</ele><time></time></trkpt>
        <trkpt lat="28.2861842" lon="105.0170641"><ele>617</ele><time></time></trkpt>
        <trkpt lat="28.285465" lon="105.0169894"><ele>610</ele><time></time></trkpt>
        <trkpt lat="28.2850884" lon="105.0175439"><ele>614</ele><time></time></trkpt>
        <trkpt lat="28.2856853" lon="105.0169253"><ele>610</ele><time></time></trkpt>
        <trkpt lat="28.2857524" lon="105.0171137"><ele>612</ele><time></time></trkpt>
        <trkpt lat="28.2855942" lon="105.0170147"><ele>610</ele><time></time></trkpt>
        <trkpt lat="28.2863072" lon="105.0170756"><ele>617</ele><time></time></trkpt>
        <trkpt lat="28.2867008" lon="105.017485"><ele>617</ele><time></time></trkpt>
        <trkpt lat="28.2878765" lon="105.017535"><ele>627</ele><time></time></trkpt>
        <trkpt lat="28.2880854" lon="105.0179775"><ele>627</ele><time></time></trkpt>
        <trkpt lat="28.2880173" lon="105.0183398"><ele>627</ele><time></time></trkpt>
        <trkpt lat="28.2873159" lon="105.0189631"><ele>624</ele><time></time></trkpt>
        <trkpt lat="28.2872162" lon="105.0194233"><ele>622</ele><time></time></trkpt>
        <trkpt lat="28.2873858" lon="105.0200008"><ele>624</ele><time></time></trkpt>
        <trkpt lat="28.2871367" lon="105.0205546"><ele>631</ele><time></time></trkpt>
        <trkpt lat="28.2876106" lon="105.0208325"><ele>639</ele><time></time></trkpt>
        <trkpt lat="28.2880884" lon="105.0207153"><ele>645</ele><time></time></trkpt>
        <trkpt lat="28.2883191" lon="105.0208402"><ele>647</ele><time></time></trkpt>
        <trkpt lat="28.2883487" lon="105.0215244"><ele>655</ele><time></time></trkpt>
        <trkpt lat="28.2879503" lon="105.0223263"><ele>656</ele><time></time></trkpt>
        <trkpt lat="28.2882152" lon="105.0227087"><ele>658</ele><time></time></trkpt>
        <trkpt lat="28.2881159" lon="105.0231719"><ele>660</ele><time></time></trkpt>
        <trkpt lat="28.2875879" lon="105.0237633"><ele>691</ele><time></time></trkpt>
        <trkpt lat="28.2874017" lon="105.023787"><ele>693</ele><time></time></trkpt>
        <trkpt lat="28.2869139" lon="105.0235219"><ele>708</ele><time></time></trkpt>
        <trkpt lat="28.2869417" lon="105.0232674"><ele>709</ele><time></time></trkpt>
        <trkpt lat="28.2865691" lon="105.0229776"><ele>715</ele><time></time></trkpt>
        <trkpt lat="28.286224" lon="105.0230526"><ele>724</ele><time></time></trkpt>
        <trkpt lat="28.2865648" lon="105.0233315"><ele>725</ele><time></time></trkpt>
        <trkpt lat="28.2861471" lon="105.0247149"><ele>730</ele><time></time></trkpt>
        <trkpt lat="28.2862756" lon="105.0249784"><ele>727</ele><time></time></trkpt>
        <trkpt lat="28.2867019" lon="105.0253187"><ele>725</ele><time></time></trkpt>
        <trkpt lat="28.28714" lon="105.0252896"><ele>715</ele><time></time></trkpt>
        <trkpt lat="28.2872627" lon="105.0249741"><ele>712</ele><time></time></trkpt>
        <trkpt lat="28.2879772" lon="105.0243728"><ele>693</ele><time></time></trkpt>
        <trkpt lat="28.2881422" lon="105.0246682"><ele>688</ele><time></time></trkpt>
        <trkpt lat="28.2887516" lon="105.0247559"><ele>682</ele><time></time></trkpt>
        <trkpt lat="28.2889423" lon="105.0251678"><ele>677</ele><time></time></trkpt>
        <trkpt lat="28.2887404" lon="105.0255188"><ele>672</ele><time></time></trkpt>
        <trkpt lat="28.2891403" lon="105.026282"><ele>667</ele><time></time></trkpt>
        <trkpt lat="28.2899066" lon="105.0265197"><ele>660</ele><time></time></trkpt>
        <trkpt lat="28.2901471" lon="105.0264251"><ele>652</ele><time></time></trkpt>
        <trkpt lat="28.2902248" lon="105.0269247"><ele>644</ele><time></time></trkpt>
        <trkpt lat="28.2905486" lon="105.0272817"><ele>632</ele><time></time></trkpt>
        <trkpt lat="28.290596" lon="105.0269562"><ele>622</ele><time></time></trkpt>
        <trkpt lat="28.2909382" lon="105.0268826"><ele>610</ele><time></time></trkpt>
        <trkpt lat="28.2911961" lon="105.027105"><ele>593</ele><time></time></trkpt>
        <trkpt lat="28.2916608" lon="105.0269045"><ele>579</ele><time></time></trkpt>
        <trkpt lat="28.2919352" lon="105.02718"><ele>566</ele><time></time></trkpt>
        <trkpt lat="28.2924271" lon="105.0272014"><ele>563</ele><time></time></trkpt>
        <trkpt lat="28.2929393" lon="105.0276723"><ele>556</ele><time></time></trkpt>
        <trkpt lat="28.2929826" lon="105.0279256"><ele>552</ele><time></time></trkpt>
        <trkpt lat="28.2932481" lon="105.0279608"><ele>547</ele><time></time></trkpt>
        <trkpt lat="28.2933146" lon="105.0288817"><ele>526</ele><time></time></trkpt>
        <trkpt lat="28.293873" lon="105.0289523"><ele>510</ele><time></time></trkpt>
        <trkpt lat="28.2937738" lon="105.0294065"><ele>497</ele><time></time></trkpt>
        <trkpt lat="28.2940258" lon="105.0295508"><ele>487</ele><time></time></trkpt>
        <trkpt lat="28.2942269" lon="105.0300506"><ele>466</ele><time></time></trkpt>
        <trkpt lat="28.2940416" lon="105.0300709"><ele>459</ele><time></time></trkpt>
        <trkpt lat="28.2940637" lon="105.0303298"><ele>447</ele><time></time></trkpt>
        <trkpt lat="28.294965" lon="105.0313359"><ele>411</ele><time></time></trkpt>
        <trkpt lat="28.29541" lon="105.0311165"><ele>410</ele><time></time></trkpt>
        <trkpt lat="28.2957895" lon="105.0329144"><ele>421</ele><time></time></trkpt>
      </trkseg>
  </trk>
</gpx>